Location: Arbon
(43.0005°N, 0.7472°E)
Time: 17:25:08
(UTC+00:00)

TIMED - Pass Details

Date: 07 August 2020
Orbit: 603 x 604 km, 74.1° (Epoch: 23 September)

Event Time Altitude Azimuth Distance (km) Brightness Sun altitude
Rises 02:30:52 0° 340° (NNW) 2,867 8.4 -21.6°
Reaches altitude 10° 02:33:06 10° 341° (NNW) 1,959 7.5 -21.4°
Maximum altitude 02:37:29 84° 69° (ENE) 613 4.5 -20.9°
Enters shadow 02:39:34 31° 157° (SSE) 1,075 5.5 -20.6°
